Latest Weather Observations for Newdegate

IDW60801

Issued at 8:32 pm WST Tuesday 31 March 2015 (issued every 30 minutes, with the page automatically refreshed every 10 minutes)

About weather observations | Map of weather stations | Latest weather observations for WA | Other Formats
Station Details ID: 010692 Name: NEWDEGATE RESEARCH STATION Lat: -33.11 Lon: 118.84 Height: 320.0 m
Data from the previous 72 hours. | See also: Recent months at Newdegate
Date/Time
WST
Temp
°C
App
Temp
°C
Dew
Point
Rel
Hum
%
Delta-T
°C
Wind Press
QNH
hPa
Press
MSL
hPa
Rain
since 9 am
mm
Dir
 
Spd
km/h
Gust
km/h
Spd
kts
Gust
kts
31/08:30pm 17.8 15.2 13.7 77 2.4 SSE 20 28 11 15 1020.3 1019.1 0.0
31/08:00pm 17.8 14.1 12.7 72 2.9 S 24 35 13 19 1019.7 1018.5 0.0
31/07:30pm 19.1 18.0 13.1 68 3.4 SSE 11 15 6 8 1018.6 1017.5 0.0
31/07:00pm 19.8 19.0 12.8 64 4.0 SSE 9 13 5 7 1018.0 1016.9 0.0
31/06:30pm 20.9 18.5 11.5 55 5.3 S 15 19 8 10 1017.5 1016.3 0.0
31/06:00pm 22.4 19.4 9.2 43 7.2 SSW 15 22 8 12 1016.8 1015.6 0.0
31/05:30pm 23.1 20.2 9.5 42 7.5 SSW 15 22 8 12 1016.4 1015.2 0.0
31/05:00pm 24.3 21.2 8.7 37 8.5 S 15 22 8 12 1016.1 1014.9 0.0
31/04:30pm 24.4 21.1 9.6 39 8.2 SW 17 24 9 13 1015.8 1014.6 0.0
31/04:00pm 24.4 20.9 10.3 41 7.9 SW 19 22 10 12 1015.7 1014.5 0.0
31/03:30pm 25.1 23.3 10.9 41 8.1 SW 11 24 6 13 1015.7 1014.5 0.0
31/03:00pm 24.6 23.4 11.5 44 7.5 WSW 9 17 5 9 1015.5 1014.4 0.0
31/02:30pm 24.4 23.6 13.0 49 6.7 SW 9 19 5 10 1015.5 1014.4 0.0
31/02:00pm 22.9 22.0 13.7 56 5.4 SW 11 19 6 10 1015.7 1014.5 0.0
31/01:30pm 23.4 22.8 14.7 58 5.2 SSW 11 20 6 11 1015.7 1014.5 0.0
31/01:00pm 23.6 24.5 15.1 59 5.1 SW 4 11 2 6 1015.9 1014.7 0.0
31/12:30pm 22.8 23.1 14.6 60 4.9 WSW 6 11 3 6 1016.0 1014.8 0.0
31/12:00pm 21.1 21.9 16.3 74 2.9 S 7 13 4 7 1016.4 1015.2 0.0
31/11:30am 20.0 18.3 15.8 77 2.5 S 19 22 10 12 1016.9 1015.7 0.0
31/11:00am 21.2 21.7 15.5 70 3.4 W 7 13 4 7 1016.9 1015.7 0.0
31/10:30am 20.0 20.6 15.8 77 2.5 WNW 7 13 4 7 1017.1 1015.9 0.0
31/10:00am 19.8 20.7 16.1 79 2.2 WNW 6 9 3 5 1017.2 1016.0 0.0
31/09:30am 19.3 20.1 15.8 80 2.1 SW 6 7 3 4 1017.2 1016.0 0.0
31/09:00am 19.5 21.0 15.8 79 2.2 N 2 4 1 2 1017.0 1015.8 -
31/08:30am 18.0 19.9 15.8 87 1.3 CALM 0 0 0 0 1017.0 1015.8 -
31/08:00am 17.8 19.8 16.0 89 1.1 CALM 0 0 0 0 1016.6 1015.4 -
31/07:30am 17.3 19.1 15.6 90 1.0 CALM 0 0 0 0 1016.4 1015.2 -
31/07:00am 17.2 19.0 15.5 90 1.0 CALM 0 0 0 0 1016.2 1015.0 -
31/06:30am 17.0 18.7 15.2 89 1.1 CALM 0 0 0 0 1015.9 1014.7 -
31/06:00am 16.9 17.8 15.1 89 1.1 W 4 4 2 2 1016.0 1014.8 -
31/05:30am 17.1 17.7 15.3 89 1.1 W 6 7 3 4 1015.8 1014.6 -
31/05:00am 17.0 18.3 15.2 89 1.1 NNW 2 4 1 2 1015.3 1014.2 -
31/04:30am 17.1 18.1 15.3 89 1.1 N 4 6 2 3 1015.3 1014.2 -
31/04:00am 17.5 19.4 15.7 89 1.1 CALM 0 0 0 0 1015.2 1014.1 -
31/03:30am 17.6 19.1 15.8 89 1.1 NNE 2 4 1 2 1015.2 1014.1 -
31/03:00am 17.9 18.7 15.9 88 1.2 N 6 6 3 3 1015.4 1014.3 1.0
31/02:30am 18.4 19.3 16.2 87 1.3 W 6 7 3 4 1015.5 1014.4 -
31/02:00am 18.5 19.5 16.3 87 1.3 WNW 6 7 3 4 1016.0 1014.8 -
31/01:30am 18.4 19.6 15.8 85 1.6 W 4 6 2 3 1016.5 1015.3 -
31/01:00am 18.5 19.2 15.7 84 1.7 WNW 6 7 3 4 1017.2 1016.0 -
31/12:30am 18.9 18.3 15.6 81 2.0 NW 13 20 7 11 1017.4 1016.2 -
31/12:00am 19.7 17.2 15.1 75 2.7 NW 22 30 12 16 1017.4 1016.2 -
 
Date/Time
WST
Temp
°C
App
Temp
°C
Dew
Point
Rel
Hum
%
Delta-T
°C
Wind Press
QNH
hPa
Press
MSL
hPa
Rain
since 9 am
mm
Dir
 
Spd
km/h
Gust
km/h
Spd
kts
Gust
kts
30/11:30pm 20.2 16.2 15.2 73 3.0 NW 30 39 16 21 1017.3 1016.1 -
30/11:00pm 20.9 16.4 15.4 71 3.3 NNW 33 46 18 25 1017.3 1016.1 -
30/10:30pm 21.5 16.9 16.2 72 3.2 N 35 46 19 25 1017.4 1016.2 -
30/10:00pm 22.5 18.7 15.8 66 4.1 N 30 43 16 23 1017.5 1016.3 -
30/09:30pm 23.9 19.7 14.6 56 5.6 N 30 37 16 20 1017.4 1016.2 -
30/09:00pm 24.6 20.9 6.4 31 9.5 N 15 20 8 11 1016.8 1015.6 0.0
30/08:30pm 24.0 22.2 8.0 36 8.6 NW 7 9 4 5 1016.2 1015.0 -
30/08:00pm 25.0 23.2 7.2 32 9.5 WNW 6 7 3 4 1015.8 1014.6 -
30/07:30pm 24.6 23.3 7.7 34 9.1 WNW 4 7 2 4 1015.7 1014.5 -
30/07:00pm 23.2 22.5 8.5 39 7.9 W 2 4 1 2 1015.3 1014.2 -
30/06:30pm 24.7 24.0 6.9 32 9.4 CALM 0 0 0 0 1015.0 1013.9 -
30/06:00pm 26.9 25.7 6.3 27 10.9 WNW 2 4 1 2 1014.9 1013.8 -
30/05:30pm 28.1 25.9 6.2 25 11.7 WNW 7 9 4 5 1015.0 1013.9 -
30/05:00pm 29.1 25.2 5.2 22 12.6 NW 15 20 8 11 1014.8 1013.6 -
30/04:30pm 29.8 25.1 5.1 21 13.0 NW 19 26 10 14 1014.5 1013.3 -
30/04:00pm 30.4 26.5 7.0 23 12.8 NW 17 22 9 12 1014.5 1013.3 -
30/03:30pm 30.1 25.5 6.7 23 12.7 NW 20 30 11 16 1014.6 1013.4 -
30/03:00pm 30.5 - 6.4 22 13.1 - - - - - 1014.5 1013.3 -
30/02:30pm 30.5 26.4 6.4 22 13.1 NW 17 24 9 13 1014.4 1013.2 0.0
30/02:00pm 30.9 25.2 6.7 22 13.2 NNW 26 32 14 17 1014.7 1013.5 0.0
30/01:30pm 32.6 28.5 8.8 23 13.5 NNW 20 32 11 17 1014.8 1013.6 0.0
30/01:00pm 30.7 25.9 7.2 23 12.9 NW 22 30 12 16 1015.2 1014.1 0.0
30/12:30pm 31.6 26.7 8.6 24 13.0 NNW 24 39 13 21 1015.9 1014.7 0.0
30/12:00pm 31.2 25.5 8.2 24 12.9 NNW 28 37 15 20 1016.4 1015.2 0.0
30/11:30am 30.9 25.1 8.0 24 12.8 NNW 28 37 15 20 1016.7 1015.5 0.0
30/11:00am 30.4 25.6 8.7 26 12.2 NNW 24 33 13 18 1017.1 1015.9 0.0
30/10:30am 29.5 25.0 8.5 27 11.7 NNW 22 33 12 18 1017.5 1016.3 0.0
30/10:00am 28.1 24.5 8.4 29 10.9 N 17 22 9 12 1017.8 1016.7 0.0
30/09:30am 27.7 23.3 9.0 31 10.4 N 22 30 12 16 1018.2 1017.1 0.0
30/09:00am 25.1 21.6 8.6 35 9.0 N 17 22 9 12 1018.6 1017.5 0.0
30/08:30am 23.6 21.2 9.9 42 7.6 NNE 13 22 7 12 1018.6 1017.5 0.0
30/08:00am 20.2 18.9 10.0 52 5.6 NNE 7 9 4 5 1018.7 1017.6 0.0
30/07:30am 17.2 17.5 11.0 67 3.4 CALM 0 0 0 0 1018.8 1017.7 0.0
30/07:00am 13.4 13.6 10.4 82 1.6 CALM 0 0 0 0 1018.6 1017.5 0.0
30/06:30am 10.9 10.4 8.0 82 1.4 CALM 0 0 0 0 1018.5 1017.4 0.0
30/06:00am 10.6 9.7 7.7 82 1.4 S 2 4 1 2 1018.3 1017.2 0.0
30/05:30am 11.1 10.7 8.1 82 1.5 CALM 0 0 0 0 1018.1 1017.0 0.0
30/05:00am 10.7 10.2 7.9 83 1.4 CALM 0 0 0 0 1018.0 1016.9 0.0
30/04:30am 11.4 10.7 8.6 83 1.4 SSW 2 2 1 1 1017.7 1016.6 0.0
30/04:00am 11.2 10.5 8.4 83 1.4 SSW 2 4 1 2 1017.5 1016.3 0.0
30/03:30am 11.5 10.8 8.7 83 1.4 S 2 4 1 2 1017.8 1016.7 0.0
30/03:00am 11.3 10.5 8.3 82 1.5 S 2 4 1 2 1017.7 1016.6 0.0
30/02:30am 11.7 11.1 9.1 84 1.3 SSW 2 6 1 3 1017.8 1016.7 0.0
30/02:00am 11.9 11.7 9.1 83 1.4 CALM 0 0 0 0 1018.1 1017.0 0.0
30/01:30am 12.2 12.0 8.9 80 1.7 CALM 0 0 0 0 1018.3 1017.2 0.0
30/01:00am 13.6 12.9 10.2 80 1.8 ESE 4 6 2 3 1018.5 1017.4 0.0
30/12:30am 12.7 11.2 8.6 76 2.1 ESE 6 6 3 3 1018.6 1017.5 0.0
30/12:00am 13.9 12.6 9.9 77 2.1 SE 7 9 4 5 1018.7 1017.6 0.0
 
Date/Time
WST
Temp
°C
App
Temp
°C
Dew
Point
Rel
Hum
%
Delta-T
°C
Wind Press
QNH
hPa
Press
MSL
hPa
Rain
since 9 am
mm
Dir
 
Spd
km/h
Gust
km/h
Spd
kts
Gust
kts
29/11:30pm 14.2 12.9 9.2 72 2.6 SE 6 6 3 3 1018.8 1017.7 0.0
29/11:00pm 15.5 14.7 9.6 68 3.1 ESE 4 6 2 3 1019.3 1018.1 0.0
29/10:30pm 16.4 15.6 9.8 65 3.5 SE 4 6 2 3 1019.4 1018.2 0.0
29/10:00pm 16.9 15.7 9.6 62 3.9 ESE 6 7 3 4 1019.7 1018.5 0.0
29/09:30pm 17.5 15.4 9.7 60 4.2 SE 11 15 6 8 1019.8 1018.6 0.0
29/09:00pm 15.3 14.7 7.6 60 3.9 CALM 0 0 0 0 1019.7 1018.5 0.0
29/08:30pm 16.4 15.8 7.3 55 4.6 CALM 0 0 0 0 1019.6 1018.4 0.0
29/08:00pm 17.3 16.7 7.6 53 5.0 CALM 0 0 0 0 1019.4 1018.2 0.0
29/07:30pm 17.2 16.6 7.5 53 5.0 CALM 0 0 0 0 1019.4 1018.2 0.0
29/07:00pm 18.0 17.4 7.4 50 5.4 CALM 0 0 0 0 1019.2 1018.0 0.0
29/06:30pm 19.4 18.7 6.8 44 6.4 CALM 0 0 0 0 1018.8 1017.7 0.0
29/06:00pm 23.4 22.3 5.3 31 9.2 CALM 0 0 0 0 1018.7 1017.6 0.0
29/05:30pm 26.6 24.6 6.1 27 10.8 N 6 7 3 4 1018.5 1017.4 0.0
29/05:00pm 27.6 25.5 5.8 25 11.5 NNE 6 9 3 5 1018.5 1017.4 0.0
29/04:30pm 28.0 25.0 6.2 25 11.6 N 11 19 6 10 1018.6 1017.5 0.0
29/04:00pm 28.2 26.2 6.3 25 11.7 N 6 13 3 7 1018.6 1017.5 0.0
29/03:30pm 28.6 26.7 6.7 25 11.8 NW 6 11 3 6 1018.6 1017.5 0.0
29/03:00pm 28.6 25.4 6.7 25 11.8 NNW 13 20 7 11 1018.8 1017.7 0.0
29/02:30pm 28.8 26.5 7.4 26 11.7 WNW 9 17 5 9 1018.8 1017.7 0.0
29/02:00pm 28.1 25.9 6.2 25 11.6 NNE 7 15 4 8 1019.1 1017.9 0.0
29/01:30pm 27.5 24.3 6.8 27 11.1 NNW 13 20 7 11 1019.4 1018.2 0.0
29/01:00pm 27.6 24.9 7.5 28 10.9 NW 11 17 6 9 1019.8 1018.6 0.0
29/12:30pm 27.5 24.7 8.4 30 10.5 N 13 22 7 12 1020.2 1019.0 0.0
29/12:00pm 26.4 24.2 7.9 31 10.0 NNE 9 19 5 10 1020.7 1019.6 0.0
29/11:30am 25.9 23.5 8.8 34 9.4 NNW 11 20 6 11 1021.2 1020.1 0.0
29/11:00am 25.3 23.5 10.7 40 8.3 N 11 17 6 9 1021.6 1020.5 0.0
29/10:30am 23.9 21.4 10.9 44 7.3 NNE 15 24 8 13 1022.3 1021.1 0.0
29/10:00am 21.7 19.3 11.4 52 5.8 NNE 15 22 8 12 1022.7 1021.5 0.0
29/09:30am 19.8 17.7 12.3 62 4.3 NE 15 20 8 11 1022.8 1021.6 0.0
29/09:00am 16.9 15.5 12.2 74 2.6 ENE 11 17 6 9 1022.8 1021.6 0.0
29/08:30am 14.9 14.3 13.6 92 0.7 ENE 9 15 5 8 1022.9 1021.7 0.0
29/08:00am 13.3 11.8 12.0 92 0.7 E 11 15 6 8 1022.8 1021.6 0.0
29/07:30am 12.8 11.2 11.5 92 0.7 ENE 11 15 6 8 1022.8 1021.6 0.0
29/07:00am 12.6 11.3 11.3 92 0.7 E 9 13 5 7 1022.7 1021.5 0.0
29/06:30am 12.3 10.9 11.0 92 0.7 ESE 9 15 5 8 1022.6 1021.4 0.0
29/06:00am 11.7 10.2 10.4 92 0.7 E 9 15 5 8 1022.5 1021.3 0.0
29/05:30am 11.3 10.0 9.9 91 0.7 ENE 7 9 4 5 1022.4 1021.2 0.0
29/05:00am 10.6 10.1 9.2 91 0.7 E 2 4 1 2 1022.1 1021.0 0.0
29/04:30am 11.3 10.0 9.9 91 0.7 ESE 7 9 4 5 1021.7 1020.6 0.0
29/04:00am 11.2 9.5 9.8 91 0.7 SE 9 11 5 6 1021.5 1020.4 0.0
29/03:30am 11.2 9.4 9.6 90 0.8 SE 9 11 5 6 1021.5 1020.4 0.0
29/03:00am 11.3 9.9 9.7 90 0.8 SE 7 9 4 5 1021.5 1020.4 0.0
29/02:30am 11.7 10.4 10.1 90 0.8 SE 7 9 4 5 1021.4 1020.3 0.0
29/02:00am 12.1 10.6 10.5 90 0.8 SSE 9 9 5 5 1021.5 1020.4 0.0
29/01:30am 12.4 10.9 10.6 89 0.9 SSE 9 11 5 6 1021.5 1020.4 0.0
29/01:00am 12.2 10.3 10.4 89 0.9 SSE 11 11 6 6 1021.6 1020.5 0.0
29/12:30am 12.0 10.7 10.1 88 1.0 SSE 7 9 4 5 1021.7 1020.6 0.0
29/12:00am 12.7 11.6 10.6 87 1.1 SE 7 9 4 5 1021.5 1020.4 0.0
 
Date/Time
WST
Temp
°C
App
Temp
°C
Dew
Point
Rel
Hum
%
Delta-T
°C
Wind Press
QNH
hPa
Press
MSL
hPa
Rain
since 9 am
mm
Dir
 
Spd
km/h
Gust
km/h
Spd
kts
Gust
kts
28/11:30pm 13.3 12.3 11.0 86 1.2 ESE 7 9 4 5 1021.3 1020.2 0.0
28/11:00pm 14.2 13.3 11.5 84 1.5 ESE 7 7 4 4 1021.5 1020.4 0.0
28/10:30pm 14.9 13.8 12.0 83 1.6 ESE 9 13 5 7 1021.4 1020.3 0.0
28/10:00pm 15.5 14.2 12.4 82 1.7 E 11 15 6 8 1021.4 1020.3 0.0
28/09:30pm 15.9 14.5 12.3 79 2.0 ESE 11 13 6 7 1021.4 1020.3 0.0
28/09:00pm 16.4 15.4 12.4 77 2.2 ESE 9 13 5 7 1021.5 1020.4 0.0

Other Formats:

Comma delimited format used in spreadsheet applications
http://www.bom.gov.au/fwo/IDW60801/IDW60801.94628.axf

JavaScript Object Notation format (JSON) in row-major order
http://www.bom.gov.au/fwo/IDW60801/IDW60801.94628.json